Date String (YYYY-MM-DD hh:mm:ss) UTC,Instrument flags,Ambient pressure (hPa),Sample flow (lpm),Bypass flow (lpm),Sample temperature (°C),Ambient temperature (°C),ASC tube jacket temperature (°C),LED temperature (°C),Box temperature (°C),Sample RH (%),Span deviation,Mass concentration (μg/m³),Mass concentration (μg/m³),Mass concentration (μg/m³)
DateTimeUTC,F1_M11,P_M11,Q1_M11,Q2_M11,T1_M11,T2_M11,T3_M11,T4_M11,T5_M11,U1_M11,ZSPAN_M11,X0_M11,X2_M11,X1_M11
2022-03-20 07:00:00,,0821.4,5.01,0.00,25.2,24.2,00.0,34.2,26.9,07.1,0000.0,0011.64,0004.66,0002.93
2022-03-20 07:01:00,,0821.4,4.99,0.00,25.2,24.2,00.0,34.2,26.9,07.3,0000.0,0011.68,0004.64,0002.91
2022-03-20 07:02:00,,0821.4,5.01,0.00,25.1,24.2,00.0,34.2,26.9,07.3,0000.0,0011.53,0004.57,0002.87
2022-03-20 07:03:00,,0821.4,4.99,0.00,25.1,24.2,00.0,34.2,26.9,07.8,0000.0,0011.38,0004.54,0002.85
2022-03-20 07:04:00,,0821.4,5.00,0.00,25.1,24.2,00.0,34.2,26.8,07.7,0000.0,0011.64,0004.49,0002.83
2022-03-20 07:05:00,,0821.4,4.99,0.00,25.1,24.2,00.0,34.2,26.9,07.4,0000.0,0011.94,0004.45,0002.82
2022-03-20 07:06:00,,0821.4,5.00,0.00,25.1,24.2,00.0,34.2,26.9,07.4,0000.0,0012.28,0004.45,0002.79
2022-03-20 07:07:00,,0821.4,5.01,0.00,25.1,24.2,00.0,34.2,26.9,07.8,0000.0,0012.38,0004.45,0002.78
2022-03-20 07:08:00,,0821.5,4.99,0.00,25.2,24.2,00.0,34.2,26.9,08.3,0000.0,0012.67,0004.46,0002.77
2022-03-20 07:09:00,,0821.4,5.00,0.00,25.2,24.2,00.0,34.2,26.9,08.4,0000.0,0012.55,0004.43,0002.76
2022-03-20 07:10:00,,0821.4,5.01,0.00,25.2,24.2,00.0,34.2,27.0,08.1,0000.0,0012.47,0004.39,0002.75
2022-03-20 07:11:00,,0821.4,5.00,0.00,25.2,24.3,00.0,34.2,27.0,08.0,0000.0,0011.60,0004.38,0002.74
2022-03-20 07:12:00,,0821.4,4.99,0.00,25.2,24.3,00.0,34.2,27.0,07.9,0000.0,0011.33,0004.37,0002.72
2022-03-20 07:13:00,,0821.4,5.01,0.00,25.2,24.3,00.0,34.2,27.0,07.9,0000.0,0011.16,0004.34,0002.73
2022-03-20 07:14:00,,0821.4,4.98,0.00,25.2,24.3,00.0,34.2,27.0,07.9,0000.0,0011.37,0004.39,0002.75
2022-03-20 07:15:00,,0821.3,5.01,0.00,25.2,24.3,00.0,34.2,27.0,07.9,0000.0,0011.21,0004.43,0002.78
2022-03-20 07:16:00,,0821.3,5.01,0.00,25.2,24.3,00.0,34.2,27.0,07.9,0000.0,0011.56,0004.46,0002.78
2022-03-20 07:17:00,,0821.3,5.00,0.00,25.2,24.3,00.0,34.2,27.0,07.8,0000.0,0011.45,0004.41,0002.77
2022-03-20 07:18:00,,0821.3,4.99,0.00,25.2,24.3,00.0,34.2,27.0,07.7,0000.0,0011.39,0004.42,0002.77
2022-03-20 07:19:00,,0821.3,5.02,0.00,25.2,24.3,00.0,34.2,27.1,07.7,0000.0,0011.38,0004.51,0002.79
2022-03-20 07:20:00,,0821.4,4.99,0.00,25.2,24.3,00.0,34.2,27.1,08.1,0000.0,0011.41,0004.53,0002.78
2022-03-20 07:21:00,,0821.3,5.01,0.00,25.3,24.3,00.0,34.2,27.1,08.4,0000.0,0011.38,0004.53,0002.80
2022-03-20 07:22:00,,0821.3,4.99,0.00,25.3,24.3,00.0,34.2,27.1,08.3,0000.0,0011.44,0004.57,0002.82
2022-03-20 07:23:00,,0821.3,5.00,0.00,25.3,24.4,00.0,34.2,27.1,08.3,0000.0,0011.37,0004.57,0002.84
2022-03-20 07:24:00,,0821.3,5.00,0.00,25.3,24.4,00.0,34.2,27.1,08.2,0000.0,0011.64,0004.65,0002.86
2022-03-20 07:25:00,,0821.3,5.00,0.00,25.3,24.4,00.0,34.2,27.1,08.0,0000.0,0011.51,0004.63,0002.86
2022-03-20 07:26:00,,0821.3,5.00,0.00,25.3,24.4,00.0,34.2,27.1,07.8,0000.0,0011.23,0004.60,0002.87
2022-03-20 07:27:00,,0821.3,4.99,0.00,25.3,24.4,00.0,34.2,27.1,07.7,0000.0,0010.58,0004.59,0002.87
2022-03-20 07:28:00,,0821.2,5.01,0.00,25.3,24.4,00.0,34.2,27.1,07.8,0000.0,0010.40,0004.64,0002.91
2022-03-20 07:29:00,,0821.2,5.00,0.00,25.3,24.4,00.0,34.2,27.1,07.7,0000.0,0010.40,0004.66,0002.93
2022-03-20 07:30:00,,0821.2,5.02,0.00,25.3,24.4,00.0,34.2,27.1,07.7,0000.0,0010.05,0004.56,0002.94
2022-03-20 07:31:00,,0821.2,4.98,0.00,25.3,24.4,00.0,34.2,27.1,07.7,0000.0,0010.41,0004.58,0002.94
2022-03-20 07:32:00,,0821.2,4.99,0.00,25.3,24.4,00.0,34.2,27.1,07.7,0000.0,0010.69,0004.64,0002.93
2022-03-20 07:33:00,,0821.2,5.01,0.00,25.3,24.4,00.0,34.2,27.1,07.6,0000.0,0011.04,0004.61,0002.92
2022-03-20 07:34:00,,0821.2,5.00,0.00,25.3,24.4,00.0,34.3,27.1,07.5,0000.0,0011.23,0004.59,0002.89
2022-03-20 07:35:00,,0821.2,4.99,0.00,25.3,24.4,00.0,34.3,27.1,07.6,0000.0,0011.16,0004.51,0002.86
2022-03-20 07:36:00,,0821.2,5.01,0.00,25.3,24.4,00.0,34.3,27.2,07.7,0000.0,0011.13,0004.51,0002.84
2022-03-20 07:37:00,,0821.1,4.99,0.00,25.3,24.4,00.0,34.3,27.1,07.8,0000.0,0011.22,0004.50,0002.81
2022-03-20 07:38:00,,0821.2,5.02,0.00,25.3,24.4,00.0,34.3,27.1,07.9,0000.0,0011.52,0004.46,0002.78
2022-03-20 07:39:00,,0821.2,4.99,0.00,25.3,24.4,00.0,34.3,27.1,07.8,0000.0,0011.59,0004.43,0002.75
2022-03-20 07:40:00,,0821.2,5.00,0.00,25.4,24.4,00.0,34.3,27.1,08.0,0000.0,0011.51,0004.36,0002.74
2022-03-20 07:41:00,,0821.2,4.99,0.00,25.4,24.4,00.0,34.3,27.2,08.0,0000.0,0011.54,0004.35,0002.72
2022-03-20 07:42:00,,0821.2,5.02,0.00,25.4,24.4,00.0,34.3,27.2,08.1,0000.0,0011.51,0004.41,0002.73
2022-03-20 07:43:00,,0821.2,4.99,0.00,25.4,24.4,00.0,34.3,27.1,08.1,0000.0,0011.15,0004.38,0002.76
2022-03-20 07:44:00,,0821.2,4.99,0.00,25.4,24.4,00.0,34.3,27.1,08.1,0000.0,0010.96,0004.37,0002.78
2022-03-20 07:45:00,,0821.1,5.01,0.00,25.4,24.4,00.0,34.3,27.1,07.9,0000.0,0010.93,0004.39,0002.80
2022-03-20 07:46:00,,0821.1,5.00,0.00,25.4,24.4,00.0,34.3,27.1,07.9,0000.0,0011.18,0004.46,0002.83
2022-03-20 07:47:00,,0821.1,5.02,0.00,25.4,24.4,00.0,34.3,27.1,07.9,0000.0,0011.21,0004.49,0002.85
2022-03-20 07:48:00,,0821.1,4.99,0.00,25.4,24.4,00.0,34.3,27.1,08.0,0000.0,0011.14,0004.47,0002.87
2022-03-20 07:49:00,,0821.1,5.01,0.00,25.4,24.4,00.0,34.3,27.2,08.0,0000.0,0010.71,0004.52,0002.91
2022-03-20 07:50:00,,0821.1,4.99,0.00,25.4,24.4,00.0,34.3,27.2,08.0,0000.0,0010.73,0004.59,0002.96
2022-03-20 07:51:00,,0821.1,5.01,0.00,25.4,24.4,00.0,34.3,27.2,08.0,0000.0,0011.07,0004.60,0002.98
2022-03-20 07:52:00,,0821.1,5.00,0.00,25.4,24.4,00.0,34.3,27.2,08.0,0000.0,0011.10,0004.66,0003.02
2022-03-20 07:53:00,,0821.1,4.99,0.00,25.4,24.4,00.0,34.3,27.2,07.9,0000.0,0011.08,0004.68,0003.05
2022-03-20 07:54:00,,0821.1,5.01,0.00,25.4,24.4,00.0,34.3,27.2,07.9,0000.0,0011.27,0004.69,0003.04
2022-03-20 07:55:00,,0821.1,5.01,0.00,25.4,24.4,00.0,34.3,27.1,07.9,0000.0,0011.25,0004.67,0003.05
2022-03-20 07:56:00,,0821.1,4.99,0.00,25.4,24.4,00.0,34.3,27.1,07.9,0000.0,0010.93,0004.64,0003.05
2022-03-20 07:57:00,,0821.0,5.00,0.00,25.4,24.4,00.0,34.3,27.1,07.9,0000.0,0010.69,0004.62,0003.08
2022-03-20 07:58:00,,0821.1,5.00,0.00,25.4,24.4,00.0,34.3,27.2,08.0,0000.0,0011.08,0004.67,0003.09
2022-03-20 07:59:00,,0821.1,5.00,0.00,25.4,24.4,00.0,34.3,27.1,08.0,0000.0,0011.23,0004.73,0003.09
